{"data":{"norad_id":64315,"intl_designator":"2025-123AA","name":"STARLINK-34387","alt_names":[],"object_type":"PAYLOAD","status":"ACTIVE","operator":null,"country":"US","launch_date":"2025-06-08","launch_site_code":"AFWTR","launch_vehicle":null,"mission":null,"orbit_class":"UNKNOWN","rcs_meters":null,"size_class":null,"mass_kg":null,"dimensions":null,"purposes":["comms"],"wikipedia_slug":null,"has_3d_model":false,"image_url":null,"decayed_at":null,"tle_current":{"epoch":"2026-05-25T00:21:59.169024Z","epoch_age_seconds":70562,"freshness":"FRESH","line1":"1 64315U 25123AA  26145.01526816  .00003071  00000+0  26503-3 0  9998","line2":"2 64315  70.0018   1.9221 0002681 268.9777  91.1075 14.98336870 53050","mean_motion":14.9833687,"eccentricity":0.0002681,"inclination_deg":70.0018,"raan_deg":1.9221,"arg_perigee_deg":268.9777,"mean_anomaly_deg":91.1075,"bstar":0.00026503,"rev_number":5305,"period_min":96.106558467056,"perigee_km":570.17130509898,"apogee_km":573.89798713562,"semimajor_km":6950.1716461173,"source":"CELESTRAK","updated_at":"2026-05-25T13:38:20.392052Z"}}}